Regional Weather Roundup
Issued by NWS Wakefield, VA

Home | Current Version | Previous Version | Text Only | Print | Product List | Glossary Off
Versions: 1 2 3 4 5 6 7 8 9 10 11 12 13 14 15 16 17 18 19 20 21 22 23 24 25 26 27 28 29 30 31 32 33 34 35 36 37 38 39 40 41 42 43 44 45 46 47 48 49 50

000
ASUS41 KAKQ 260114
RWRAKQ

REGIONAL WEATHER ROUNDUP
NATIONAL WEATHER SERVICE WAKEFIELD VA
900 PM EDT SAT APR 25 2015

Note: "fair" indicates few or no clouds below 12,000 feet with no
significant weather and/or obstructions to visibility. * = Denotes
station may not report precipitation (e.g., rain,snow,etc.),
thunder or fog.

VAZ042-051-052>054-056-260200-
NORTHERN VIRGINIA

CITY           SKY/WX    TMP DP  RH WIND       PRES   REMARKS
WASH NATIONAL  LGT RAIN  46  38  73 W5        29.76F
DULLES         LGT RAIN  41  39  93 CALM      29.76S FOG
FORT BELVOIR   LGT RAIN  43  40  90 NW6       29.76R
QUANTICO       RAIN      44  39  82 N6        29.76S
FREDERICKSBRG* RAIN      44  44 100 N5        29.73F
STAFFORD*      HVY RAIN  41  32  69 CALM      29.77F
WARRENTON      LGT RAIN  42  41  98 CALM      29.74S
CULPEPER*      LGT RAIN  43  43 100 N3        29.75F
MANASSAS*      RAIN      43  43 100 CALM      29.75F
LEESBURG*      LGT RAIN  41  41 100 W3        29.78R
WINCHESTER     LGT RAIN  41  36  81 CALM      29.75R
FRONT ROYAL*   CLOUDY    39  37  93 CALM      29.74R
LURAY*         DRIZZLE   43  43 100 CALM      29.73R
$$

VAZ048-049-060>072-079>083-260200-
CENTRAL AND SOUTH CENTRAL VIRGINIA

CITY           SKY/WX    TMP DP  RH WIND       PRES   REMARKS
RICHMOND       DRIZZLE   46  44  93 E6        29.70F FOG
CHESTERFIELD*  CLOUDY    45  34  65 E5        29.71F
PETERSBURG*    CLOUDY    47  46  96 E7        29.70F FOG
HANOVER        CLOUDY    44  43  96 CALM      29.73F
TAPPAHANNOCK*  DRIZZLE   46  42  88 CALM      29.72F
QUINTON*       CLOUDY    45  44  97 SE6       29.70F
CHARLOTTSVILLE RAIN      40  39  97 CALM      29.73F FOG
GORDONSVILLE*  CLOUDY    40  39  97 CALM      29.72F FOG
ORANGE*        RAIN      41  41 100 CALM      29.75F
LOUISA*        DRIZZLE   43  41  93 CALM      29.72R
BUMPASS*       CLOUDY    42  41  97 CALM      29.71F
FARMVILLE*     RAIN      45  45 100 N7        29.70S
CREWE*         CLOUDY    45  43  95 CALM      29.70R
FORT PICKETT*  CLOUDY    44  43  98 E9        29.69S
CHASE CITY*    CLOUDY    46  46 100 NE3       29.68S
CLARKSVILLE*   CLOUDY    45  45 100 NE3       29.67F
SOUTH HILL*    CLOUDY    44  43  97 NE7       29.74R
LAWRENCEVILLE* CLOUDY    44  44 100 CALM      29.68F
EMPORIA*       LGT SNOW  43  43 100 N3        29.70F
$$

VAZ088>098-260200-
SOUTHEAST VIRGINIA

CITY           SKY/WX    TMP DP  RH WIND       PRES   REMARKS
NORFOLK        RAIN      46  43  89 E8        29.70F FOG
VIRGINIA BEACH LGT RAIN  48  44  86 E12       29.69F FOG
NORFOLK NAVAL  LGT RAIN  49  44  83 E9        29.71F
WEST POINT*    CLOUDY    47  45  92 E8        29.71F
SALUDA*        CLOUDY    44  44  97 SE3       29.71F
NEWPORT NEWS   LGT RAIN  49  44  83 E8        29.70F
LANGLEY AFB    DRIZZLE   46  45  93 E13       29.70F FOG
FORT EUSTIS    CLOUDY    45  45 100 E6        29.68F FOG
WILLIAMSBURG*  CLOUDY    48  46  93 E5        29.71F
HR EXEC AP*    CLOUDY    48  43  81 E6        29.70F
FRANKLIN*      CLOUDY    45  44  96 E8        29.70S
WAKEFIELD      CLOUDY    46  44  93 NE5       29.70F FOG
$$

VAZ020-022-025-037-045-260200-
WEST CENTRAL AND SOUTHWEST VIRGINIA

CITY           SKY/WX    TMP DP  RH WIND       PRES   REMARKS
STAUNTON*      RAIN      40  38  93 CALM      29.72F
WAYNESBORO*    CLOUDY    38  37  99 S6        29.71S
HOT SPRINGS VA CLOUDY    35  35 100 SE3       29.62F VSB<1/4
LYNCHBURG      CLOUDY    40  40 100 NE9       29.71F FOG
DANVILLE       CLOUDY    47  44  90 N7        29.69R FOG
SOUTH BOSTON*  CLOUDY    46  44  95 N5        29.69S
MARTINSVILLE   CLOUDY    44  44 100 N5        29.72R FOG
ROANOKE        CLOUDY    41  41 100 N15G21    29.79R FOG
BLACKSBURG     FOG       39  38  99 E8G16     29.71R VSB 1/2
DUBLIN*        CLOUDY    42  42 100 NE7       29.67R FOG
MARION*        CLOUDY    51  44  76 E6        29.65S
HILLSVILLE*    CLOUDY    47  46  95 SE5       29.64S
RICHLANDS*     FAIR      62  52  69 SW9G17    29.57F
WISE*          MOCLDY    64  55  72 W12G17    29.59R
ABINGDON*      CLOUDY    62  52  70 E6        29.58S
$$

MDZ021>025-VAZ099-100-260200-
SOUTHERN MARYLAND AND THE DELMARVA PENINSULA

CITY           SKY/WX    TMP DP  RH WIND       PRES   REMARKS
PATUXENT RIVER CLOUDY    44  42  93 E6        29.72F
BAY BRIDGE APT LGT RAIN N/A N/A N/A SW5       29.75F
LEONARDTOWN    CLOUDY    45  41  87 E3        29.73F
DOVER          CLOUDY    48  35  60 S7        29.71S
GEORGETOWN     LGT RAIN  45  42  89 CALM      29.76F
EASTON         NOT AVBL
CAMBRIDGE      CLOUDY    45  41  87 CALM      29.75F
SALISBURY      LGT RAIN  45  44  97 S3        29.75F FOG
OCEAN CITY     LGT RAIN  45  43  93 CALM      29.76F FOG
WALLOPS ISLAND LGT RAIN  44  43  96 CALM      29.75F
ACCOMACK*      LGT RAIN  43  34  70 CALM      29.73F
$$

NCZ012>017-030>032-260200-
NORTH CENTRAL AND EASTERN NORTH CAROLINA

CITY           SKY/WX    TMP DP  RH WIND       PRES   REMARKS
ROANOKE RAPIDS DRIZZLE   46  46 100 NE3       29.65F
RALEIGH        LGT RAIN  51  50  96 N5        29.65S VSB 1/2
ELIZABETH CITY LGT RAIN  49  47  93 NE13      29.69F
AHOSKIE*       CLOUDY    47  46  96 NE3       29.67S FOG
EDENTON*       CLOUDY    53  51  95 E8        29.67F FOG
CURRITUCK*     RAIN      49  46  88 NE8       29.71F
KILL DEVIL HLS RAIN      52  49  90 E6        29.67F
MANTEO         DRIZZLE   52  49  89 E8        29.67F
CAPE HATTERAS  LGT RAIN  55  54  96 NE5       29.66F
TARBORO*       LGT RAIN  56  55  96 SE3       29.66F
GOLDSBORO      CLOUDY    57 N/A N/A NE7       29.60F
WASHINGTON     DRIZZLE   55  55  97 NE8       29.64F
GREENVILLE     CLOUDY    55  55 100 E5        29.67F FOG
NEW BERN       CLOUDY    61  58  90 E3        29.63F
WILMINGTON     CLOUDY    69  66  90 SW12      29.60F
$$

VAZ048-260200-
ELSEWHERE

CITY           SKY/WX    TMP DP  RH WIND       PRES   REMARKS
HARRISBURG PA  CLOUDY    51  29  42 SW10      29.71S
BALTIMORE      LGT RAIN  43  39  86 W6        29.74F
ANNAPOLIS      LGT RAIN  44  40  85 SW6       29.75F
ANDREWS AFB    LGT RAIN  43  43 100 W6        29.74R
PHILADELPHIA   CLOUDY    52  27  38 SW12      29.74S
HENDERSON NC   CLOUDY    47  46  95 N6        29.67R FOG
GREENSBORO     DRIZZLE   46  45  96 N5        29.66R FOG
ROCKY MOUNT    LGT RAIN  55  54  96 CALM      29.64F FOG
$$

VAZ100-260200-
MARINE

STATION/POSITION TIME  TEMP    WIND        PRES    WAVE   SWELL
                       AIR SEA DIR/SP/G            HT/PER HT/PER
                 (UTC) (F)     (DEG/KT/KT) (MB)    (FT/S) (FT/S)
BRANDYWINE LGT   0000   49 52  250/ 12/ 13 1007.6F
CAPE MAY NJ      0000   48 56  200/  2/  3 1007.3F
LEWES DE         0000   50 51  260/  7/  8 1007.7F
15NM E FENWICK I 0050   45 47              1007.5F   1/ 3
OCEAN-CITY-INLET 0000   46 50  270/  4/  5 1008.1F
WACHAPREAGUE VA  0000   45 55  110/  3/  4 1007.9F
THOMAS POINT MD  0100   45 52  260/  7/  7 1007.8F
GOOSES REEF MD   0100   45 53   40/  4/  6   N/A     0
COVE POINT MD    0000   44      CALM  /  1 1008.3F
SOLOMONS ISLAND  0000      55                N/A
BISHOPS HEAD MD  0000   45 54  210/  3/  4 1007.4F
PINEY POINT MD   0000          130/  9/ 10   N/A
CAMBRIDGE MD     0000   45 58  200/  3/  4 1007.5F
LEWISETTA VA     0000   44 56              1007.3F
RAPPAHANNOCK LGT 0000          120/  7/  8 1008.3F
YORK RVR RNG VA  0000   46     120/ 12/ 14 1006.5F
YORKTOWN VA      0000   47 60  100/ 12/ 14 1006.7F
JAMESTOWN VA     0100   45 64   90/  6/  8 1004.7F
DOMINION TERM VA 0000   46      80/ 13/ 17 1007.0F
KIPTOPEKE VA     0000      62  110/  6/  8   N/A
CHES BAY BRIDGE  0000   45 53   60/ 14/ 16 1006.6F
CAPE HENRY VA    0000   45      80/ 17/ 19 1005.5F
CHESAPEAKE LGHT  0000   44      80/ 16/ 18 1007.9F
WILLOUBY STN VA  0000   46      90/ 13/ 14 1007.2F
S CRANEY ISL VA  0000           70/ 10/ 15 1006.6F
CAPE HENRY BUOY  0028      51                N/A     2/ 7
1ST LANDING BUOY 0100                      1005.7    2/ 3
OFFSHORE WE BUOY 0011      50                N/A     3/ 6   2/13
64NM E OF VA BCH 0050   51 59   60/ 17/ 19 1005.5F   3/ 7   2/ 7
DUCK PIER NC     0000   50 55   60/ 17/ 19 1004.8F
44056 DUCK FRF   0011      54                N/A     3/ 4
OREGON INLET NC  0000   53 59   50/  7/ 10 1005.1F
HATTERAS NC      0000   60 65   30/  2/  5 1004.8F
DIAMOND SHLS NC  0050   61 70  350/  2/  4 1004.6F   3/ 6   2/ 6
CAPE LOOKOUT NC  0100   63     110/  2/  3 1002.4F
$$


USA.gov is the U.S. government's official web portal to all federal, state and local government web resources and services.